MARKET Weather Reports


Display with metric or nautical units.
time (UTC)temp
F
wind
direction
speed
MPH
gust
MPH
rain 1hr
in
rain 24hr
in
rain mn
in
humidity
%
barometer
mb
20260902074110 59 241 18.0 21.0 0.00 0.00 0.00 88 1007.2
20260902070438 59 243 19.0 22.0 0.00 0.00 0.00 90 1007.0
20260902064438 59 244 16.0 19.0 0.00 0.00 0.00 90 1006.8
20260902062439 58 245 19.0 20.0 0.00 0.00 0.00 89 1006.9
20260902060440 59 245 16.0 20.0 0.00 0.00 0.00 90 1007.0
20260902054439 59 239 14.0 16.0 0.00 0.00 0.00 91 1007.0
20260902052439 59 239 13.0 16.0 0.00 0.00 0.00 91 1007.0
20260902050440 59 243 15.0 17.0 0.00 0.00 0.00 91 1007.0
20260902024442 60 209 11.0 12.0 0.00 0.00 0.00 94 1007.3
20260902000439 60 205 12.0 13.0 0.00 0.00 0.00 87 1007.8
20260901230440 61 210 11.0 11.0 0.00 0.00 0.00 86 1008.0
20260901214439 60 196 10.0 11.0 0.00 0.00 0.00 81 1008.2
20260901210438 60 193 9.0 10.0 0.00 0.00 0.00 80 1008.2
20260901204438 60 183 9.0 11.0 0.00 0.00 0.00 80 1008.2
20260901200438 59 167 9.0 10.0 0.00 0.00 0.00 78 1008.3
20260901184438 59 135 4.0 5.0 0.00 0.00 0.00 76 1008.3
20260901182437 60 115 4.0 5.0 0.00 0.00 0.00 74 1008.3
20260901180436 60 92 3.0 4.0 0.00 0.00 0.00 73 1008.3
20260901174437 60 56 3.0 4.0 0.00 0.00 0.00 72 1008.2
20260901172439 60 33 3.0 4.0 0.00 0.00 0.00 71 1008.2
20260901154435 60 359 5.0 6.0 0.00 0.00 0.00 74 1008.1
20260901150436 60 356 4.0 6.0 0.00 0.00 0.00 72 1008.2
20260901144436 59 6 5.0 6.0 0.00 0.00 0.00 75 1008.3
20260901142436 59 5 6.0 7.0 0.00 0.00 0.00 74 1008.3
20260901140436 59 5 7.0 8.0 0.00 0.00 0.00 76 1008.5
20260901134436 59 357 7.0 8.0 0.00 0.00 0.00 76 1008.5
20260901132436 59 344 8.0 9.0 0.00 0.00 0.00 73 1008.5
20260901130435 59 349 9.0 10.0 0.00 0.00 0.00 76 1008.4
20260901124436 59 341 8.0 10.0 0.00 0.00 0.00 75 1008.4
20260901114436 59 339 10.0 12.0 0.00 0.00 0.00 80 1008.3
20260901112434 60 347 8.0 10.0 0.00 0.00 0.00 79 1008.2
20260901104435 60 346 10.0 11.0 0.00 0.00 0.00 82 1008.2
20260901102106 60 337 12.0 13.0 0.00 0.00 0.00 83 1008.0
20260901100434 60 334 12.0 13.0 0.00 0.00 0.00 83 1007.9
20260901094437 60 337 10.0 12.0 0.00 0.00 0.00 86 1007.8
20260901092436 60 339 9.0 11.0 0.00 0.00 0.00 86 1007.7
20260901090434 60 347 9.0 10.0 0.00 0.00 0.00 86 1007.5
20260901084106 61 14 11.0 13.0 0.00 0.00 0.00 85 1007.2